When you browse on this site, cookies collect data to enhance your experience and personalize the content and advertising you see.
Visit our Privacy Policy to learn more. By continuing to use the site, you agree to this use of cookies and data.
  • Em Portugal
  • Lista de países
  • Para 7 dias
  • Temperatura da água
  • Mapas de satélite
  • Mapa do tempo
  • Widgets de tempo
  • user-avatar
    Iniciar Sessão

    Previsão horária em Volodarskoe

    Hoje, 25 Maio, Sábado

    Tempo Temperatura Precipitação Vento Pressão Humidade
    00:00 +17°C° 0 mm 2 m/s 747 mmHg 71%
    01:00 +16°C° 0 mm 2 m/s 746 mmHg 73%
    02:00 +16°C° 0 mm 2 m/s 746 mmHg 75%
    03:00 +16°C° 0.6 mm 2 m/s 746 mmHg 80%
    04:00 +16°C° 0.6 mm 3 m/s 746 mmHg 85%
    05:00 +16°C° 0.6 mm 3 m/s 746 mmHg 90%
    06:00 +17°C° 1 mm 3 m/s 746 mmHg 88%
    07:00 +19°C° 1 mm 4 m/s 746 mmHg 85%
    08:00 +20°C° 1 mm 4 m/s 746 mmHg 82%
    09:00 +20°C° 0.7 mm 5 m/s 746 mmHg 80%
    10:00 +21°C° 0.7 mm 5 m/s 746 mmHg 78%
    11:00 +21°C° 0.7 mm 6 m/s 746 mmHg 75%
    12:00 +21°C° 0.1 mm 5 m/s 746 mmHg 76%
    13:00 +21°C° 0.1 mm 5 m/s 745 mmHg 77%
    14:00 +21°C° 0.1 mm 4 m/s 745 mmHg 77%
    15:00 +21°C° 0 mm 4 m/s 745 mmHg 77%
    16:00 +21°C° 0 mm 3 m/s 745 mmHg 77%
    17:00 +21°C° 0 mm 3 m/s 745 mmHg 77%
    18:00 +20°C° 0.6 mm 3 m/s 745 mmHg 81%
    19:00 +19°C° 0.6 mm 3 m/s 745 mmHg 84%
    20:00 +18°C° 0.6 mm 3 m/s 745 mmHg 88%
    21:00 +17°C° 0.2 mm 4 m/s 745 mmHg 88%
    22:00 +17°C° 0.2 mm 4 m/s 746 mmHg 88%
    23:00 +16°C° 0.2 mm 5 m/s 746 mmHg 89%

    Amanhã, 26 Maio, Domingo

    Tempo Temperatura Precipitação Vento Pressão Humidade
    00:00 +16°C° 0 mm 5 m/s 746 mmHg 88%
    01:00 +15°C° 0 mm 4 m/s 746 mmHg 88%
    02:00 +15°C° 0 mm 4 m/s 746 mmHg 88%
    03:00 +15°C° 0 mm 4 m/s 746 mmHg 90%
    04:00 +15°C° 0 mm 4 m/s 746 mmHg 92%
    05:00 +15°C° 0 mm 4 m/s 746 mmHg 93%
    06:00 +15°C° 0 mm 4 m/s 746 mmHg 91%
    07:00 +16°C° 0 mm 5 m/s 746 mmHg 89%
    08:00 +17°C° 0 mm 5 m/s 746 mmHg 86%
    09:00 +19°C° 0.2 mm 5 m/s 746 mmHg 82%
    10:00 +20°C° 0.2 mm 6 m/s 746 mmHg 78%
    11:00 +21°C° 0.2 mm 6 m/s 746 mmHg 73%
    12:00 +22°C° 0.1 mm 6 m/s 746 mmHg 71%
    13:00 +22°C° 0.1 mm 6 m/s 746 mmHg 68%
    14:00 +23°C° 0.1 mm 6 m/s 746 mmHg 66%
    15:00 +23°C° 0.9 mm 5 m/s 746 mmHg 68%
    16:00 +23°C° 0.9 mm 5 m/s 747 mmHg 70%
    17:00 +22°C° 0.9 mm 4 m/s 747 mmHg 73%
    18:00 +21°C° 0.8 mm 4 m/s 747 mmHg 77%
    19:00 +20°C° 0.8 mm 4 m/s 748 mmHg 81%
    20:00 +19°C° 0.8 mm 4 m/s 748 mmHg 84%
    21:00 +19°C° 0 mm 3 m/s 749 mmHg 86%
    22:00 +18°C° 0 mm 3 m/s 749 mmHg 87%
    23:00 +18°C° 0 mm 3 m/s 749 mmHg 89%

    Depois de amanhã, 27 Maio, Segunda-feira

    Tempo Temperatura Precipitação Vento Pressão Humidade
    00:00 +17°C° 0 mm 3 m/s 750 mmHg 89%
    01:00 +17°C° 0 mm 3 m/s 750 mmHg 89%
    02:00 +16°C° 0 mm 3 m/s 751 mmHg 89%
    03:00 +16°C° 0 mm 3 m/s 751 mmHg 89%
    04:00 +17°C° 0 mm 3 m/s 751 mmHg 88%
    05:00 +17°C° 0 mm 3 m/s 752 mmHg 87%
    06:00 +18°C° 0 mm 3 m/s 752 mmHg 81%
    07:00 +20°C° 0 mm 2 m/s 753 mmHg 75%
    08:00 +23°C° 0 mm 2 m/s 753 mmHg 69%
    09:00 +24°C° 0 mm 2 m/s 753 mmHg 64%
    10:00 +25°C° 0 mm 2 m/s 754 mmHg 60%
    11:00 +26°C° 0 mm 2 m/s 754 mmHg 55%
    12:00 +26°C° 0 mm 3 m/s 754 mmHg 55%
    13:00 +26°C° 0 mm 3 m/s 754 mmHg 55%
    14:00 +26°C° 0 mm 3 m/s 754 mmHg 55%
    15:00 +26°C° 0 mm 3 m/s 754 mmHg 57%
    16:00 +26°C° 0 mm 3 m/s 754 mmHg 60%
    17:00 +25°C° 0 mm 3 m/s 754 mmHg 63%
    18:00 +24°C° 0 mm 3 m/s 754 mmHg 67%
    19:00 +21°C° 0 mm 3 m/s 754 mmHg 72%
    20:00 +20°C° 0 mm 3 m/s 754 mmHg 76%
    21:00 +19°C° 0 mm 2 m/s 754 mmHg 77%
    22:00 +19°C° 0 mm 2 m/s 755 mmHg 77%
    23:00 +18°C° 0 mm 2 m/s 755 mmHg 77%

    28 Maio, Terça-feira

    Tempo Temperatura Precipitação Vento Pressão Humidade
    00:00 +18°C° 0 mm 2 m/s 755 mmHg 77%
    01:00 +19°C° 0 mm 1 m/s 755 mmHg 77%
    02:00 +19°C° 0 mm 1 m/s 755 mmHg 76%
    03:00 +19°C° 0 mm 1 m/s 755 mmHg 76%
    04:00 +19°C° 0 mm 1 m/s 755 mmHg 76%
    05:00 +18°C° 0 mm 0 m/s 755 mmHg 76%
    06:00 +21°C° 0 mm 1 m/s 755 mmHg 72%
    07:00 +23°C° 0 mm 1 m/s 755 mmHg 67%
    08:00 +24°C° 0 mm 2 m/s 756 mmHg 62%
    09:00 +25°C° 0 mm 2 m/s 756 mmHg 61%
    10:00 +25°C° 0 mm 3 m/s 756 mmHg 59%
    11:00 +26°C° 0 mm 3 m/s 756 mmHg 57%
    12:00 +26°C° 0 mm 3 m/s 755 mmHg 56%
    13:00 +26°C° 0 mm 3 m/s 755 mmHg 55%
    14:00 +27°C° 0 mm 3 m/s 755 mmHg 54%
    15:00 +26°C° 0 mm 3 m/s 755 mmHg 56%
    16:00 +26°C° 0 mm 3 m/s 755 mmHg 58%
    17:00 +26°C° 0 mm 2 m/s 755 mmHg 59%
    18:00 +24°C° 0 mm 2 m/s 755 mmHg 63%
    19:00 +23°C° 0 mm 2 m/s 755 mmHg 66%
    20:00 +21°C° 0 mm 2 m/s 755 mmHg 70%
    21:00 +20°C° 0 mm 3 m/s 754 mmHg 71%
    22:00 +20°C° 0 mm 3 m/s 754 mmHg 72%
    23:00 +20°C° 0 mm 3 m/s 754 mmHg 73%

    29 Maio, Quarta-feira

    Tempo Temperatura Precipitação Vento Pressão Humidade
    00:00 +20°C° 0 mm 3 m/s 754 mmHg 75%
    01:00 +19°C° 0 mm 3 m/s 754 mmHg 78%
    02:00 +19°C° 0 mm 3 m/s 754 mmHg 80%
    03:00 +19°C° 0 mm 3 m/s 754 mmHg 81%
    04:00 +19°C° 0 mm 3 m/s 754 mmHg 81%
    05:00 +19°C° 0 mm 3 m/s 754 mmHg 81%
    06:00 +21°C° 0 mm 4 m/s 754 mmHg 75%
    07:00 +22°C° 0 mm 5 m/s 754 mmHg 69%
    08:00 +24°C° 0 mm 6 m/s 754 mmHg 63%
    09:00 +24°C° 0 mm 6 m/s 754 mmHg 61%
    10:00 +26°C° 0 mm 6 m/s 754 mmHg 59%
    11:00 +27°C° 0 mm 7 m/s 753 mmHg 57%
    12:00 +27°C° 0 mm 6 m/s 753 mmHg 56%
    13:00 +27°C° 0 mm 6 m/s 753 mmHg 56%
    14:00 +27°C° 0 mm 5 m/s 753 mmHg 56%
    15:00 +27°C° 0 mm 5 m/s 753 mmHg 58%
    16:00 +27°C° 0 mm 5 m/s 753 mmHg 60%
    17:00 +27°C° 0 mm 4 m/s 753 mmHg 62%
    18:00 +25°C° 0 mm 4 m/s 753 mmHg 66%
    19:00 +23°C° 0 mm 4 m/s 753 mmHg 70%
    20:00 +22°C° 0 mm 3 m/s 753 mmHg 74%
    21:00 +21°C° 0 mm 3 m/s 753 mmHg 74%
    22:00 +21°C° 0 mm 3 m/s 752 mmHg 74%
    23:00 +20°C° 0 mm 3 m/s 752 mmHg 75%

    30 Maio, Quinta-feira

    Tempo Temperatura Precipitação Vento Pressão Humidade
    00:00 +20°C° 0 mm 3 m/s 752 mmHg 74%
    01:00 +19°C° 0 mm 3 m/s 752 mmHg 74%
    02:00 +19°C° 0 mm 3 m/s 752 mmHg 73%
    03:00 +19°C° 0 mm 3 m/s 752 mmHg 75%
    04:00 +19°C° 0 mm 3 m/s 752 mmHg 76%
    05:00 +19°C° 0 mm 3 m/s 752 mmHg 78%
    06:00 +20°C° 0 mm 3 m/s 752 mmHg 73%
    07:00 +22°C° 0 mm 4 m/s 752 mmHg 67%
    08:00 +23°C° 0 mm 4 m/s 752 mmHg 62%
    09:00 +26°C° 0 mm 4 m/s 752 mmHg 57%
    10:00 +27°C° 0 mm 4 m/s 752 mmHg 53%
    11:00 +28°C° 0 mm 4 m/s 752 mmHg 49%
    12:00 +29°C° 0 mm 4 m/s 752 mmHg 48%
    13:00 +29°C° 0 mm 4 m/s 752 mmHg 48%
    14:00 +29°C° 0 mm 4 m/s 752 mmHg 48%
    15:00 +29°C° 0 mm 3 m/s 751 mmHg 50%
    16:00 +29°C° 0 mm 3 m/s 751 mmHg 52%
    17:00 +29°C° 0 mm 3 m/s 751 mmHg 54%
    18:00 +27°C° 0 mm 2 m/s 751 mmHg 56%
    19:00 +26°C° 0 mm 2 m/s 751 mmHg 59%
    20:00 +24°C° 0 mm 2 m/s 751 mmHg 61%
    21:00 +24°C° 0 mm 2 m/s 751 mmHg 63%
    22:00 +23°C° 0 mm 2 m/s 751 mmHg 64%
    23:00 +23°C° 0 mm 2 m/s 751 mmHg 66%
    Mostrar mais